Total_Precipitation_Accumulation
0.02 0.03 0.06 0.09 0.09 0.10 0.12 0.16 0.18 0.21 0.23 0.28 0.34 0.46 0.70 0.83 1.00 1.00 1.02 1.04 1.10 1.43 1.64 1.95 2.29 2.62 3.17 3.22 3.06 3.16 3.37 3.55 3.65 3.94 4.04 4.26 4.60 4.82 4.97 5.00 4.88 4.83 4.69 4.76
0.04 0.04 0.04 0.07 0.08 0.09 0.15 0.23 0.27 0.24 0.23 0.31 0.44 0.58 0.77 0.90 0.98 0.95 1.03 1.17 1.28 1.67 2.00 2.13 2.31 2.72 3.21 3.39 3.41 3.45 3.65 3.96 4.18 4.42 4.87 5.17 5.43 5.68 5.88 5.89 5.46 5.25 5.13 4.99
0.04 0.04 0.03 0.06 0.06 0.07 0.11 0.17 0.21 0.24 0.23 0.30 0.49 0.76 0.93 1.01 1.12 1.25 1.45 1.64 1.74 1.89 2.19 2.27 2.37 2.73 3.05 3.24 3.38 3.51 3.74 4.19 4.74 5.13 5.59 6.00 6.16 6.20 6.07 5.79 5.65 5.50 5.36 5.22
0.02 0.02 0.02 0.06 0.08 0.09 0.10 0.12 0.18 0.18 0.21 0.32 0.45 0.84 1.18 1.26 1.37 1.65 1.86 1.83 1.87 2.01 2.20 2.35 2.51 2.74 3.01 3.23 3.38 3.70 4.17 4.80 5.37 5.85 6.38 6.86 6.98 6.82 6.52 6.08 5.65 5.40 5.16 4.85
0.04 0.04 0.06 0.06 0.09 0.11 0.10 0.09 0.15 0.16 0.15 0.28 0.42 0.71 1.43 1.61 1.70 1.94 2.16 1.94 1.85 1.83 1.88 2.13 2.29 2.48 2.85 3.04 3.27 3.64 4.18 4.88 5.60 6.43 7.12 7.53 7.45 7.11 6.70 6.02 5.45 4.99 4.58 4.23
0.05 0.04 0.05 0.06 0.07 0.09 0.09 0.09 0.12 0.15 0.18 0.31 0.34 0.61 1.34 1.80 1.99 2.10 2.04 1.86 1.77 1.64 1.61 1.69 1.78 2.04 2.37 2.68 2.99 3.42 4.03 4.75 5.41 6.06 6.60 6.83 6.73 6.52 6.01 5.32 4.69 4.30 3.97 3.62
0.09 0.08 0.07 0.06 0.05 0.08 0.09 0.11 0.29 0.43 0.48 0.48 0.38 0.65 1.31 1.70 1.84 1.77 1.71 1.73 1.59 1.55 1.52 1.49 1.51 1.74 2.07 2.28 2.68 3.11 3.55 4.19 4.63 4.96 5.38 5.57 5.58 5.35 5.06 4.59 4.13 3.69 3.21 2.86
0.21 0.17 0.10 0.06 0.05 0.09 0.09 0.10 0.33 0.57 0.56 0.58 0.60 0.99 1.54 1.61 1.58 1.49 1.43 1.46 1.47 1.43 1.42 1.46 1.54 1.70 1.95 2.10 2.29 2.52 2.83 3.19 3.38 3.43 3.67 3.91 3.93 3.88 3.76 3.47 3.16 2.87 2.52 2.15
0.32 0.22 0.11 0.06 0.04 0.06 0.07 0.08 0.15 0.31 0.36 0.64 0.96 1.41 1.86 1.74 1.68 1.60 1.56 1.41 1.33 1.29 1.31 1.43 1.49 1.49 1.55 1.64 1.73 1.82 2.00 2.17 2.25 2.34 2.40 2.55 2.59 2.57 2.48 2.32 2.09 1.90 1.75 1.53
0.30 0.25 0.12 0.06 0.05 0.06 0.07 0.12 0.18 0.33 0.61 0.86 1.18 1.76 2.34 2.27 1.92 1.63 1.45 1.23 1.11 1.14 1.22 1.31 1.38 1.35 1.35 1.35 1.42 1.49 1.56 1.63 1.68 1.74 1.69 1.70 1.75 1.75 1.69 1.56 1.49 1.39 1.27 1.17
0.26 0.28 0.15 0.10 0.13 0.14 0.13 0.17 0.23 0.35 0.44 0.83 1.33 2.06 2.25 2.43 2.31 1.89 1.56 1.36 1.22 1.14 1.12 1.20 1.20 1.18 1.16 1.16 1.19 1.26 1.30 1.29 1.30 1.29 1.25 1.24 1.21 1.22 1.25 1.24 1.20 1.11 1.00 0.87
0.26 0.35 0.32 0.21 0.16 0.15 0.15 0.19 0.28 0.56 0.64 0.66 1.25 2.24 2.22 2.47 2.55 2.25 1.93 1.73 1.61 1.33 1.22 1.23 1.15 1.09 1.03 1.03 1.04 1.07 1.08 1.08 1.13 1.06 0.97 0.97 0.94 0.92 0.95 0.97 0.90 0.85 0.81 0.71
0.24 0.43 0.75 0.72 0.52 0.28 0.21 0.22 0.26 0.34 0.53 0.74 1.31 2.38 2.49 2.37 2.41 2.36 2.07 1.96 2.00 1.83 1.60 1.45 1.26 1.16 1.12 1.07 0.99 0.92 0.94 0.93 0.94 0.92 0.86 0.84 0.82 0.82 0.83 0.85 0.80 0.73 0.70 0.66
0.19 0.45 0.97 1.29 0.92 0.54 0.37 0.27 0.26 0.34 0.65 0.84 1.21 1.90 2.25 2.30 2.36 2.42 2.45 2.40 2.39 2.10 1.78 1.57 1.35 1.26 1.21 1.12 1.02 0.96 0.96 0.90 0.84 0.83 0.77 0.75 0.73 0.73 0.72 0.74 0.75 0.68 0.58 0.53
0.31 0.68 0.69 0.60 0.52 0.48 0.40 0.37 0.35 0.36 0.47 0.79 1.20 1.61 2.03 2.17 2.30 2.56 2.71 2.59 2.31 1.94 1.70 1.60 1.51 1.41 1.34 1.24 1.17 1.06 0.98 0.89 0.85 0.81 0.77 0.73 0.68 0.64 0.61 0.61 0.62 0.59 0.55 0.48
0.36 0.64 0.62 0.54 0.44 0.49 0.49 0.50 0.52 0.50 0.57 0.85 1.24 1.85 2.16 2.35 2.46 2.48 2.44 2.46 2.39 2.03 1.80 1.72 1.64 1.54 1.49 1.37 1.31 1.22 1.11 1.05 0.95 0.88 0.86 0.79 0.72 0.63 0.61 0.58 0.57 0.55 0.50 0.46
0.35 0.59 0.86 0.78 0.47 0.67 1.01 0.83 0.69 0.72 0.77 0.96 1.32 1.68 1.84 1.99 2.12 2.32 2.43 2.36 2.34 2.11 1.89 1.78 1.78 1.75 1.68 1.62 1.52 1.36 1.21 1.13 0.95 0.82 0.77 0.74 0.69 0.64 0.61 0.53 0.50 0.53 0.54 0.52
0.30 0.59 0.81 0.78 0.91 1.37 1.16 0.73 0.65 0.79 0.85 0.86 1.03 1.15 1.38 1.56 1.76 2.01 2.23 2.33 2.35 2.18 2.05 1.94 1.84 1.80 1.71 1.62 1.50 1.31 1.13 0.96 0.79 0.70 0.66 0.62 0.58 0.60 0.61 0.55 0.53 0.55 0.56 0.53
0.21 0.50 0.80 0.92 1.21 1.38 1.14 0.71 0.62 0.91 1.12 0.87 0.91 0.93 0.95 1.07 1.34 1.80 1.92 1.97 2.06 2.10 2.05 1.94 1.81 1.73 1.61 1.42 1.26 1.14 0.94 0.82 0.74 0.69 0.66 0.57 0.51 0.57 0.60 0.57 0.57 0.61 0.58 0.57
0.25 0.44 0.79 0.99 1.37 1.64 1.41 0.63 0.42 0.74 1.49 1.08 0.96 1.00 0.98 1.14 1.45 1.50 1.42 1.46 1.59 1.72 1.81 1.76 1.58 1.45 1.38 1.20 1.03 0.98 0.86 0.77 0.73 0.66 0.62 0.56 0.54 0.57 0.59 0.63 0.63 0.57 0.57 0.54
0.58 0.70 0.92 1.09 1.38 1.44 0.80 0.46 0.58 1.33 1.66 1.18 0.96 1.03 1.19 1.40 1.37 1.05 0.92 1.09 1.26 1.36 1.50 1.49 1.39 1.31 1.16 0.98 0.96 1.00 0.96 0.82 0.65 0.55 0.55 0.58 0.59 0.55 0.53 0.56 0.59 0.56 0.50 0.52
0.69 0.87 1.03 1.15 1.47 1.46 0.64 0.56 0.95 1.13 0.90 0.80 0.80 0.84 0.87 0.89 0.80 0.73 0.73 0.87 0.98 1.10 1.19 1.25 1.28 1.20 1.08 0.98 0.96 0.96 0.92 0.73 0.62 0.61 0.62 0.59 0.55 0.45 0.43 0.52 0.56 0.52 0.50 0.53
0.62 0.79 0.90 1.06 1.28 0.98 0.54 0.52 0.56 0.57 0.67 0.66 0.71 0.71 0.62 0.63 0.65 0.62 0.67 0.80 0.90 0.95 0.98 1.02 1.06 1.03 1.00 0.93 0.93 0.92 0.80 0.63 0.60 0.65 0.61 0.55 0.47 0.42 0.42 0.48 0.50 0.48 0.47 0.44
0.63 0.49 0.57 0.71 0.71 0.57 0.50 0.47 0.50 0.56 0.56 0.57 0.61 0.61 0.57 0.52 0.53 0.55 0.64 0.76 0.82 0.81 0.81 0.86 0.94 0.93 0.90 0.82 0.80 0.81 0.69 0.64 0.67 0.67 0.58 0.50 0.44 0.38 0.36 0.38 0.36 0.36 0.37 0.37
0.59 0.44 0.58 0.73 0.72 0.64 0.60 0.53 0.52 0.56 0.56 0.53 0.56 0.59 0.53 0.45 0.45 0.50 0.60 0.63 0.68 0.72 0.72 0.77 0.87 0.86 0.76 0.68 0.64 0.60 0.63 0.67 0.70 0.64 0.52 0.45 0.38 0.32 0.31 0.27 0.22 0.21 0.22 0.22
0.44 0.47 0.57 0.74 0.70 0.73 0.68 0.51 0.47 0.56 0.64 0.65 0.61 0.54 0.46 0.42 0.41 0.41 0.50 0.53 0.55 0.60 0.65 0.71 0.71 0.67 0.60 0.55 0.54 0.49 0.52 0.58 0.55 0.49 0.42 0.35 0.29 0.27 0.23 0.22 0.20 0.14 0.13 0.14